Weather History for Wautoma, WI

Change the Weather History Date:

Saturday, December 8, 2012

  Actual Average (KPCZ) Record (KPCZ)
Temperature  
Mean Temperature 32 °F -  
Max Temperature 36 °F 31 °F 46 °F (1991)
Min Temperature 27 °F 15 °F -9 °F (1976)
Degree Days  
Heating Degree Days 34    
Moisture  
Dew Point 23 °F    
Average Humidity 74    
Maximum Humidity 88    
Minimum Humidity 55    
Precipitation  
Precipitation 0.00 in - - ()
Sea Level Pressure  
Sea Level Pressure 30.07 in    
Wind  
Wind Speed 1 mph (NE)    
Max Wind Speed 7 mph    
Max Gust Speed -    
Visibility 10 miles    
Events      
Averages and records for this station are not official NWS values.
T = Trace of Precipitation, MM = Missing Value Source: NWS Daily Summary

Daily Weather History Graph

Daily Weather History Graph

Search for Another Location

Airport:

Trip Planner

Search our weather history database for the weather conditions in past years. The results will help you decide how hot, cold, wet, or windy it might be!

Date:

Astronomy

Dec. 08, 2012 Rise Set
Actual Time 7:19 AM CST 4:18 PM CST
Civil Twilight 6:46 AM CST 4:51 PM CST
Nautical Twilight 6:10 AM CST 5:28 PM CST
Astronomical Twilight 5:35 AM CST 6:03 PM CST
Moon 1:35 AM CST (12/8) 12:57 PM CST (12/8)
Length of Visible Light 10h 04m
Length of Day
8h 59m
Waning Crescent, 28% of the Moon is Illuminated
Dec 8
Waning Crescent
Dec 13
New
Dec 19
First Quarter
Dec 28
Full
Jan 4
Last Quarter

Hourly Weather History & Observations

Time (CST) Temp. Windchill Dew Point Humidity Pressure Visibility Wind Dir Wind Speed Gust Speed Precip Events Conditions
12:56 AM 31.1 °F - 24.1 °F 75% 30.00 in 10.0 mi Calm Calm - N/A   Partly Cloudy
1:56 AM 30.0 °F - 23.0 °F 75% 30.00 in 10.0 mi Calm Calm - N/A   Partly Cloudy
2:56 AM 29.1 °F - 23.0 °F 78% 29.99 in 10.0 mi Calm Calm - N/A   Scattered Clouds
3:56 AM 28.0 °F - 23.0 °F 81% 30.00 in 10.0 mi Calm Calm - N/A   Mostly Cloudy
4:22 AM 28.4 °F 22.2 °F 21.2 °F 74% 29.98 in 10.0 mi North 5.8 mph - N/A   Overcast
4:56 AM 29.1 °F 22.1 °F 22.1 °F 75% 30.00 in 10.0 mi NNE 6.9 mph - N/A   Overcast
5:56 AM 29.1 °F - 22.1 °F 75% 30.02 in 10.0 mi Calm Calm - N/A   Overcast
6:32 AM 28.4 °F - 21.2 °F 74% 30.01 in 10.0 mi Calm Calm - N/A   Scattered Clouds
6:56 AM 27.1 °F - 22.1 °F 81% 30.04 in 10.0 mi Calm Calm - N/A   Mostly Cloudy
7:36 AM 28.4 °F - 23.0 °F 80% 30.02 in 10.0 mi Calm Calm - N/A   Overcast
7:56 AM 28.0 °F - 23.0 °F 81% 30.05 in 10.0 mi Calm Calm - N/A   Overcast
8:56 AM 29.1 °F 23.0 °F 24.1 °F 81% 30.08 in 10.0 mi NNE 5.8 mph - N/A   Overcast
9:56 AM 30.0 °F - 24.1 °F 79% 30.09 in 10.0 mi Calm Calm - N/A   Mostly Cloudy
10:56 AM 32.9 °F 29.8 °F 24.1 °F 70% 30.09 in 10.0 mi North 3.5 mph - N/A   Clear
11:56 AM 34.9 °F - 24.1 °F 65% 30.07 in 10.0 mi Calm Calm - N/A   Clear
12:56 PM 36.9 °F 32.2 °F 23.0 °F 57% 30.05 in 10.0 mi East 5.8 mph - N/A   Clear
1:56 PM 36.9 °F 34.3 °F 22.1 °F 55% 30.05 in 10.0 mi ENE 3.5 mph - N/A   Partly Cloudy
2:56 PM 36.0 °F - 22.1 °F 57% 30.06 in 10.0 mi Calm Calm - N/A   Clear
3:56 PM 34.9 °F - 22.1 °F 60% 30.10 in 10.0 mi Calm Calm - N/A   Clear
4:56 PM 32.0 °F - 22.1 °F 67% 30.12 in 10.0 mi Calm Calm - N/A   Clear
5:56 PM 30.0 °F - 22.1 °F 72% 30.14 in 10.0 mi Calm Calm - N/A   Clear
6:56 PM 29.1 °F - 23.0 °F 78% 30.13 in 10.0 mi Calm Calm - N/A   Clear
7:56 PM 30.0 °F - 22.1 °F 72% 30.12 in 10.0 mi Calm Calm - N/A   Clear
8:56 PM 29.1 °F - 23.0 °F 78% 30.13 in 10.0 mi Calm Calm - N/A   Clear
9:56 PM 28.0 °F - 23.0 °F 81% 30.15 in 10.0 mi Calm Calm - N/A   Clear
10:56 PM 27.1 °F - 24.1 °F 88% 30.17 in 10.0 mi Calm Calm - N/A   Clear
11:56 PM 27.1 °F - 24.1 °F 88% 30.15 in 10.0 mi Calm Calm - N/A   Clear